"read_dt","SO2 (ppb)","flags","PMT voltage (V)","lamp voltage (V)","lamp intensity (Hz)","internal temp (C)","react chamber temp (C)","sample flow (l/min)","pres (mmHg)","SO2 bkg (ppb)","SO2 coefficient"
2014-04-21 00:00:00,2972E-2,5C000400,-0724,1024,10257,027.5,045.3,0.225,746.2,01.17,0.508
2014-04-21 00:01:00,2974E-2,5C000400,-0724,1024,10197,027.5,045.3,0.227,746.2,01.17,0.508
2014-04-21 00:02:00,2992E-2,5C000400,-0724,1024,10378,027.5,045.3,0.228,746.1,01.17,0.508
2014-04-21 00:03:00,2970E-2,5C000400,-0724,1024,10205,027.4,045.3,0.228,746.1,01.17,0.508
2014-04-21 00:04:00,3039E-2,5C000400,-0724,1024,10346,027.5,045.3,0.227,746.1,01.17,0.508
2014-04-21 00:05:00,3011E-2,5C000400,-0724,1024,10141,027.5,045.3,0.229,746.1,01.17,0.508
2014-04-21 00:06:00,3010E-2,5C000400,-0724,1024,10297,027.5,045.3,0.223,746.1,01.17,0.508
2014-04-21 00:07:00,2991E-2,5C000400,-0724,1024,10323,027.5,045.3,0.221,746.0,01.17,0.508
2014-04-21 00:08:00,3060E-2,5C000400,-0724,1024,10297,027.5,045.3,0.224,746.1,01.17,0.508
2014-04-21 00:09:00,2978E-2,5C000400,-0724,1025,10349,027.5,045.3,0.224,746.1,01.17,0.508
2014-04-21 00:10:00,3002E-2,5C000400,-0724,1025,10035,027.5,045.3,0.223,746.1,01.17,0.508
2014-04-21 00:11:00,2993E-2,5C000400,-0724,1024,10303,027.5,045.3,0.225,746.1,01.17,0.508
2014-04-21 00:12:00,3032E-2,5C000400,-0724,1024,10144,027.5,045.3,0.223,746.1,01.17,0.508
2014-04-21 00:13:00,3007E-2,5C000400,-0724,1024,10263,027.5,045.3,0.224,746.1,01.17,0.508
2014-04-21 00:14:00,2994E-2,5C000400,-0724,1025,10374,027.5,045.3,0.220,746.0,01.17,0.508
2014-04-21 00:15:00,2998E-2,5C000400,-0724,1024,10230,027.5,045.3,0.220,746.0,01.17,0.508
2014-04-21 00:16:00,3022E-2,5C000400,-0724,1025,10415,027.5,045.3,0.219,746.0,01.17,0.508
2014-04-21 00:17:00,2993E-2,5C000400,-0724,1025,10345,027.5,045.3,0.220,746.0,01.17,0.508
2014-04-21 00:18:00,3002E-2,5C000400,-0724,1025,10282,027.5,045.3,0.222,746.0,01.17,0.508
2014-04-21 00:19:00,3015E-2,5C000400,-0724,1025,10267,027.5,045.3,0.221,746.0,01.17,0.508
2014-04-21 00:20:00,2939E-2,5C000400,-0724,1024,10283,027.5,045.3,0.224,746.0,01.17,0.508
2014-04-21 00:21:00,2983E-2,5C000400,-0724,1024,10207,027.5,045.3,0.226,746.1,01.17,0.508
2014-04-21 00:22:00,3024E-2,5C000400,-0724,1025,10082,027.5,045.3,0.223,746.0,01.17,0.508
2014-04-21 00:23:00,3008E-2,5C000400,-0724,1024,10294,027.5,045.3,0.224,746.0,01.17,0.508
2014-04-21 00:24:00,2987E-2,5C000400,-0724,1026,10217,027.5,045.3,0.222,746.0,01.17,0.508
2014-04-21 00:25:00,3011E-2,5C000400,-0724,1025,10176,027.5,045.3,0.226,746.1,01.17,0.508
2014-04-21 00:26:00,3038E-2,5C000400,-0724,1026,10309,027.5,045.3,0.222,746.0,01.17,0.508
2014-04-21 00:27:00,2972E-2,5C000400,-0724,1024,10259,027.5,045.3,0.221,746.0,01.17,0.508
2014-04-21 00:28:00,3051E-2,5C000400,-0724,1026,10171,027.5,045.3,0.224,746.0,01.17,0.508
2014-04-21 00:29:00,3021E-2,5C000400,-0724,1025,10070,027.5,045.3,0.221,746.0,01.17,0.508
2014-04-21 00:30:00,3011E-2,5C000400,-0724,1025,10373,027.5,045.3,0.220,746.0,01.17,0.508
2014-04-21 00:31:00,2979E-2,5C000400,-0724,1025,10387,027.5,045.3,0.221,746.0,01.17,0.508
2014-04-21 00:32:00,2985E-2,5C000400,-0724,1026,10369,027.5,045.3,0.218,745.8,01.17,0.508
2014-04-21 00:33:00,2981E-2,5C000400,-0724,1025,10069,027.5,045.3,0.219,745.9,01.17,0.508
2014-04-21 00:34:00,3022E-2,5C000400,-0724,1026,10132,027.6,045.3,0.222,745.9,01.17,0.508
2014-04-21 00:35:00,3013E-2,5C000400,-0724,1025,10171,027.5,045.3,0.222,745.9,01.17,0.508
2014-04-21 00:36:00,3039E-2,5C000400,-0724,1025,10247,027.5,045.3,0.224,746.0,01.17,0.508
2014-04-21 00:37:00,2985E-2,5C000400,-0724,1025,10311,027.6,045.3,0.223,745.9,01.17,0.508
2014-04-21 00:38:00,3006E-2,5C000400,-0724,1025,10291,027.6,045.3,0.226,746.0,01.17,0.508
2014-04-21 00:39:00,3013E-2,5C000400,-0724,1025,10164,027.6,045.3,0.226,746.0,01.17,0.508
2014-04-21 00:40:00,2974E-2,5C000400,-0724,1025,10113,027.6,045.3,0.225,745.9,01.17,0.508
2014-04-21 00:41:00,2994E-2,5C000400,-0724,1025,10229,027.6,045.3,0.223,745.8,01.17,0.508
2014-04-21 00:42:00,2992E-2,5C000400,-0724,1026,10103,027.6,045.3,0.230,746.0,01.17,0.508
2014-04-21 00:43:00,2996E-2,5C000400,-0724,1027,10091,027.6,045.3,0.226,745.9,01.17,0.508
2014-04-21 00:44:00,3014E-2,5C000400,-0724,1025,10255,027.6,045.3,0.226,745.9,01.17,0.508
2014-04-21 00:45:00,2995E-2,5C000400,-0724,1026,10292,027.6,045.3,0.225,745.9,01.17,0.508
2014-04-21 00:46:00,3067E-2,5C000400,-0724,1025,10348,027.6,045.3,0.227,745.9,01.17,0.508
2014-04-21 00:47:00,3038E-2,5C000400,-0724,1025,10352,027.6,045.3,0.227,745.9,01.17,0.508
2014-04-21 00:48:00,3012E-2,5C000400,-0724,1026,10273,027.6,045.3,0.226,745.9,01.17,0.508
2014-04-21 00:49:00,3040E-2,5C000400,-0724,1025,10270,027.6,045.3,0.225,745.9,01.17,0.508
2014-04-21 00:50:00,3019E-2,5C000400,-0724,1025,10252,027.6,045.3,0.226,745.9,01.17,0.508
2014-04-21 00:51:00,3016E-2,5C000400,-0724,1025,10306,027.6,045.3,0.228,745.9,01.17,0.508
2014-04-21 00:52:00,3010E-2,5C000400,-0724,1025,10224,027.6,045.3,0.226,745.9,01.17,0.508
2014-04-21 00:53:00,2989E-2,5C000400,-0724,1026,10229,027.6,045.3,0.225,745.8,01.17,0.508
2014-04-21 00:54:00,3041E-2,5C000400,-0724,1026,10261,027.6,045.3,0.228,745.9,01.17,0.508
2014-04-21 00:55:00,3033E-2,5C000400,-0724,1025,10205,027.6,045.3,0.230,745.9,01.17,0.508
2014-04-21 00:56:00,2998E-2,5C000400,-0724,1026,10272,027.6,045.3,0.230,745.9,01.17,0.508
2014-04-21 00:57:00,3051E-2,5C000400,-0724,1026,10293,027.6,045.3,0.227,745.9,01.17,0.508
2014-04-21 00:58:00,3030E-2,5C000400,-0724,1026,10342,027.6,045.3,0.226,745.9,01.17,0.508
2014-04-21 00:59:00,3032E-2,5C000400,-0724,1026,10191,027.6,045.3,0.229,745.9,01.17,0.508
2014-04-21 01:00:00,3053E-2,5C000400,-0724,1026,10195,027.6,045.3,0.229,745.9,01.17,0.508
2014-04-21 01:01:00,3015E-2,5C000400,-0724,1025,10294,027.6,045.3,0.231,745.9,01.17,0.508
2014-04-21 01:02:00,3066E-2,5C000400,-0724,1026,10229,027.6,045.3,0.232,746.0,01.17,0.508
2014-04-21 01:03:00,3059E-2,5C000400,-0724,1027,10263,027.7,045.3,0.229,746.0,01.17,0.508
2014-04-21 01:04:00,3034E-2,5C000400,-0724,1029,9965,027.7,045.3,0.227,745.9,01.17,0.508
2014-04-21 01:05:00,3043E-2,5C000400,-0724,1027,10122,027.7,045.3,0.229,745.9,01.17,0.508
2014-04-21 01:06:00,3043E-2,5C000400,-0724,1027,10410,027.7,045.3,0.229,746.0,01.17,0.508
2014-04-21 01:07:00,3049E-2,5C000400,-0724,1027,10365,027.7,045.3,0.229,746.0,01.17,0.508
2014-04-21 01:08:00,3036E-2,5C000400,-0724,1027,10239,027.7,045.3,0.227,746.0,01.17,0.508
2014-04-21 01:09:00,3039E-2,5C000400,-0724,1026,10135,027.7,045.3,0.224,745.9,01.17,0.508
2014-04-21 01:10:00,3020E-2,5C000400,-0724,1026,10246,027.7,045.3,0.228,746.0,01.17,0.508
2014-04-21 01:11:00,3065E-2,5C000400,-0724,1027,10082,027.7,045.3,0.223,746.0,01.17,0.508
2014-04-21 01:12:00,3030E-2,5C000400,-0724,1028,10134,027.7,045.3,0.211,745.9,01.17,0.508
2014-04-21 01:13:00,3040E-2,5C000400,-0724,1027,10228,027.7,045.3,0.211,745.9,01.17,0.508
2014-04-21 01:14:00,3057E-2,5C000400,-0724,1026,10234,027.7,045.3,0.210,745.9,01.17,0.508
2014-04-21 01:15:00,3067E-2,5C000400,-0724,1027,10273,027.7,045.3,0.202,745.9,01.17,0.508
2014-04-21 01:16:00,3068E-2,5C000400,-0724,1026,10251,027.8,045.3,0.187,745.9,01.17,0.508
2014-04-21 01:17:00,3029E-2,5C000400,-0724,1027,10317,027.8,045.3,0.191,746.0,01.17,0.508
2014-04-21 01:18:00,3036E-2,5C000400,-0724,1027,10414,027.7,045.3,0.174,746.0,01.17,0.508
2014-04-21 01:19:00,3045E-2,5C000400,-0724,1026,10334,027.8,045.3,0.159,745.9,01.17,0.508
2014-04-21 01:20:00,3059E-2,5C000400,-0724,1025,10210,027.8,045.3,0.162,746.0,01.17,0.508
2014-04-21 01:21:00,3072E-2,5C000400,-0724,1025,10262,027.8,045.3,0.153,746.0,01.17,0.508
2014-04-21 01:22:00,3049E-2,5C000400,-0724,1025,10305,027.8,045.3,0.129,745.9,01.17,0.508
2014-04-21 01:23:00,3081E-2,5C000400,-0724,1027,10289,027.8,045.3,0.112,745.9,01.17,0.508
2014-04-21 01:24:00,3019E-2,5C000400,-0724,1026,10254,027.8,045.3,0.111,746.0,01.17,0.508
2014-04-21 01:25:00,3054E-2,5C000400,-0724,1026,10107,027.8,045.3,0.107,746.0,01.17,0.508
2014-04-21 01:26:00,3082E-2,5C000400,-0724,1027,10248,027.8,045.3,0.000,746.0,01.17,0.508
2014-04-21 01:27:00,3056E-2,5C000400,-0724,1027,10238,027.8,045.3,0.000,745.9,01.17,0.508
2014-04-21 01:28:00,3079E-2,5C000400,-0724,1026,10341,027.8,045.3,0.000,746.0,01.17,0.508
2014-04-21 01:29:00,3066E-2,5C000400,-0724,1026,10111,027.9,045.3,0.000,746.0,01.17,0.508
2014-04-21 01:30:00,3061E-2,5C000400,-0724,1026,9993,027.9,045.3,0.000,745.9,01.17,0.508
2014-04-21 01:31:00,3060E-2,5C000400,-0724,1027,10192,027.9,045.3,0.000,745.9,01.17,0.508
2014-04-21 01:32:00,3050E-2,5C000400,-0724,1026,10376,027.8,045.3,0.000,745.9,01.17,0.508
2014-04-21 01:33:00,3055E-2,5C000400,-0724,1026,10285,027.9,045.3,0.000,746.0,01.17,0.508
2014-04-21 01:34:00,3071E-2,5C000400,-0724,1027,10262,027.9,045.3,0.000,746.0,01.17,0.508
2014-04-21 01:35:00,3100E-2,5C000400,-0724,1026,10072,027.9,045.3,0.000,745.9,01.17,0.508
2014-04-21 01:36:00,3029E-2,5C000400,-0724,1027,10264,027.9,045.3,0.000,745.9,01.17,0.508
2014-04-21 01:37:00,3066E-2,5C000400,-0724,1027,10325,027.9,045.3,0.000,745.9,01.17,0.508
2014-04-21 01:38:00,3096E-2,5C000400,-0724,1027,10214,027.9,045.3,0.000,745.9,01.17,0.508
2014-04-21 01:39:00,3060E-2,5C000400,-0724,1027,10194,027.9,045.3,0.000,745.9,01.17,0.508
2014-04-21 01:40:00,3070E-2,5C000400,-0724,1026,10092,027.9,045.3,0.000,745.9,01.17,0.508
2014-04-21 01:41:00,3051E-2,5C000400,-0724,1027,10314,027.9,045.3,0.000,745.9,01.17,0.508
2014-04-21 01:42:00,3102E-2,5C000400,-0724,1027,10290,028.0,045.3,0.000,745.8,01.17,0.508
2014-04-21 01:43:00,3109E-2,5C000410,-0724,1027,10124,028.0,045.3,0.000,745.9,01.17,0.508
2014-04-21 01:44:00,3054E-2,5C000400,-0724,1027,10318,028.0,045.3,0.000,745.9,01.17,0.508
2014-04-21 01:45:00,3084E-2,5C000400,-0724,1028,10341,028.0,045.3,0.000,745.9,01.17,0.508
2014-04-21 01:46:00,3103E-2,5C000400,-0724,1028,10391,027.9,045.3,0.000,745.9,01.17,0.508
2014-04-21 01:47:00,3089E-2,5C000400,-0724,1028,10298,028.0,045.3,0.000,745.9,01.17,0.508
2014-04-21 01:48:00,3060E-2,5C000400,-0724,1027,10296,028.0,045.3,0.000,745.8,01.17,0.508
2014-04-21 01:49:00,3093E-2,5C000400,-0724,1027,10192,028.0,045.3,0.000,745.8,01.17,0.508
2014-04-21 01:50:00,3114E-2,5C000400,-0724,1028,10085,028.0,045.3,0.000,745.8,01.17,0.508
2014-04-21 01:51:00,3092E-2,5C000400,-0724,1027,10244,028.0,045.3,0.000,745.9,01.17,0.508
2014-04-21 01:52:00,3116E-2,5C000400,-0724,1028,10249,028.0,045.3,0.000,745.9,01.17,0.508
2014-04-21 01:53:00,3111E-2,5C000400,-0724,1027,10277,028.0,045.3,0.000,745.8,01.17,0.508
2014-04-21 01:54:00,3117E-2,5C000400,-0724,1027,10316,028.1,045.3,0.000,745.9,01.17,0.508
2014-04-21 01:55:00,3104E-2,5C000400,-0724,1027,10255,028.0,045.3,0.000,745.8,01.17,0.508
2014-04-21 01:56:00,3115E-2,5C000400,-0724,1028,10326,028.0,045.3,0.000,745.8,01.17,0.508
2014-04-21 01:57:00,3136E-2,5C000400,-0724,1028,10264,028.0,045.3,0.000,745.8,01.17,0.508
2014-04-21 01:58:00,3128E-2,5C000400,-0724,1028,10259,028.1,045.3,0.000,745.8,01.17,0.508
2014-04-21 01:59:00,3109E-2,5C000400,-0724,1027,10355,028.1,045.3,0.000,745.8,01.17,0.508
2014-04-21 02:00:00,3135E-2,5C000400,-0724,1028,10273,028.1,045.3,0.000,745.8,01.17,0.508
2014-04-21 02:01:00,3107E-2,5C000400,-0724,1027,10269,028.1,045.3,0.000,745.8,01.17,0.508
2014-04-21 02:02:00,3109E-2,5C000400,-0724,1027,10301,028.1,045.3,0.000,745.8,01.17,0.508
2014-04-21 02:03:00,3101E-2,5C000400,-0724,1027,10277,028.1,045.3,0.000,745.8,01.17,0.508
2014-04-21 02:04:00,3095E-2,5C000400,-0724,1028,10220,028.1,045.3,0.000,745.8,01.17,0.508
2014-04-21 02:05:00,3133E-2,5C000400,-0724,1029,10227,028.1,045.3,0.000,745.8,01.17,0.508
2014-04-21 02:06:00,3118E-2,5C000400,-0724,1027,10161,028.1,045.3,0.000,745.8,01.17,0.508
2014-04-21 02:07:00,3131E-2,5C000400,-0724,1028,10110,028.1,045.3,0.000,745.8,01.17,0.508
2014-04-21 02:08:00,3153E-2,5C000400,-0724,1028,10188,028.1,045.3,0.000,745.7,01.17,0.508
2014-04-21 02:09:00,3122E-2,5C000400,-0724,1027,10110,028.1,045.3,0.000,745.7,01.17,0.508
2014-04-21 02:10:00,3089E-2,5C000400,-0724,1028,10092,028.2,045.3,0.000,745.8,01.17,0.508
2014-04-21 02:11:00,3171E-2,5C000400,-0724,1028,10151,028.2,045.3,0.000,745.7,01.17,0.508
2014-04-21 02:12:00,3151E-2,5C000400,-0724,1029,10371,028.2,045.3,0.000,745.7,01.17,0.508
2014-04-21 02:13:00,3176E-2,5C000400,-0724,1028,10344,028.2,045.3,0.000,745.8,01.17,0.508
2014-04-21 02:14:00,3159E-2,5C000400,-0724,1027,10252,028.2,045.3,0.000,745.8,01.17,0.508
2014-04-21 02:15:00,3175E-2,5C000400,-0724,1027,10075,028.2,045.3,0.000,745.7,01.17,0.508
2014-04-21 02:16:00,3155E-2,5C000400,-0724,1028,10199,028.2,045.3,0.000,745.8,01.17,0.508
2014-04-21 02:17:00,3142E-2,5C000400,-0724,1028,10311,028.2,045.3,0.000,745.7,01.17,0.508
2014-04-21 02:18:00,3113E-2,5C000400,-0724,1028,10177,028.2,045.3,0.000,745.7,01.17,0.508
2014-04-21 02:19:00,3172E-2,5C000400,-0724,1029,10166,028.3,045.3,0.000,745.8,01.17,0.508
2014-04-21 02:20:00,3140E-2,5C000400,-0724,1028,10182,028.2,045.3,0.000,745.8,01.17,0.508
2014-04-21 02:21:00,3076E-2,5C000400,-0724,1027,10284,028.3,045.3,0.000,745.7,01.17,0.508
2014-04-21 02:22:00,3135E-2,5C000400,-0724,1028,10284,028.3,045.3,0.000,745.7,01.17,0.508
2014-04-21 02:23:00,3184E-2,5C000400,-0724,1028,10326,028.3,045.3,0.000,745.7,01.17,0.508
2014-04-21 02:24:00,3132E-2,5C000400,-0724,1028,10185,028.3,045.3,0.000,745.8,01.17,0.508
2014-04-21 02:25:00,3144E-2,5C000400,-0724,1027,10378,028.3,045.3,0.000,745.8,01.17,0.508
2014-04-21 02:26:00,3162E-2,5C000400,-0724,1029,10275,028.3,045.3,0.000,745.7,01.17,0.508
2014-04-21 02:27:00,3168E-2,5C000400,-0724,1028,10289,028.3,045.3,0.000,745.7,01.17,0.508
2014-04-21 02:28:00,3141E-2,5C000400,-0724,1028,10315,028.3,045.3,0.000,745.7,01.17,0.508
2014-04-21 02:29:00,3135E-2,5C000400,-0724,1029,10368,028.3,045.3,0.000,745.8,01.17,0.508
2014-04-21 02:30:00,3171E-2,5C000400,-0724,1027,10144,028.3,045.3,0.000,745.7,01.17,0.508
2014-04-21 02:31:00,3161E-2,5C000400,-0724,1028,10147,028.3,045.3,0.000,745.7,01.17,0.508
2014-04-21 02:32:00,3128E-2,5C000400,-0724,1029,10147,028.4,045.3,0.000,745.7,01.17,0.508
2014-04-21 02:33:00,3176E-2,5C000400,-0724,1028,10381,028.3,045.3,0.000,745.8,01.17,0.508
2014-04-21 02:34:00,3192E-2,5C000400,-0724,1028,10272,028.4,045.4,0.000,745.7,01.17,0.508
2014-04-21 02:35:00,3153E-2,5C000400,-0724,1028,10204,028.4,045.3,0.000,745.7,01.17,0.508
2014-04-21 02:36:00,3162E-2,5C000400,-0724,1028,10127,028.4,045.3,0.000,745.7,01.17,0.508
2014-04-21 02:37:00,3169E-2,5C000400,-0724,1028,10164,028.4,045.3,0.000,745.7,01.17,0.508
2014-04-21 02:38:00,3185E-2,5C000400,-0724,1028,10160,028.4,045.3,0.000,745.7,01.17,0.508
2014-04-21 02:39:00,3165E-2,5C000400,-0724,1029,10256,028.4,045.3,0.000,745.7,01.17,0.508
2014-04-21 02:40:00,3098E-2,5C000400,-0724,1028,10284,028.4,045.3,0.000,745.7,01.17,0.508
2014-04-21 02:41:00,3180E-2,5C000400,-0724,1028,10088,028.4,045.3,0.000,745.7,01.17,0.508
2014-04-21 02:42:00,3160E-2,5C000400,-0724,1029,10313,028.5,045.3,0.000,745.8,01.17,0.508
2014-04-21 02:43:00,3166E-2,5C000400,-0724,1030,10395,028.5,045.4,0.000,745.7,01.17,0.508
2014-04-21 02:44:00,3127E-2,5C000400,-0724,1029,10162,028.5,045.3,0.000,745.7,01.17,0.508
2014-04-21 02:45:00,3149E-2,5C000400,-0724,1028,10189,028.5,045.3,0.000,745.7,01.17,0.508
2014-04-21 02:46:00,3179E-2,5C000400,-0724,1029,10235,028.5,045.3,0.000,745.6,01.17,0.508
2014-04-21 02:47:00,3139E-2,5C000400,-0724,1029,10122,028.5,045.3,0.000,745.7,01.17,0.508
2014-04-21 02:48:00,3163E-2,5C000400,-0724,1029,10262,028.5,045.3,0.000,745.7,01.17,0.508
2014-04-21 02:49:00,3154E-2,5C000400,-0724,1029,10272,028.5,045.4,0.000,745.7,01.17,0.508
2014-04-21 02:50:00,3123E-2,5C000400,-0724,1029,10319,028.5,045.4,0.000,745.7,01.17,0.508
2014-04-21 02:51:00,3144E-2,5C000400,-0724,1029,10239,028.5,045.3,0.000,745.7,01.17,0.508
2014-04-21 02:52:00,3113E-2,5C000400,-0724,1030,10293,028.5,045.4,0.000,745.7,01.17,0.508
2014-04-21 02:53:00,3170E-2,5C000400,-0724,1028,10117,028.5,045.4,0.000,745.7,01.17,0.508
2014-04-21 02:54:00,3182E-2,5C000400,-0724,1029,10182,028.6,045.3,0.000,745.7,01.17,0.508
2014-04-21 02:55:00,3170E-2,5C000400,-0724,1029,10162,028.5,045.4,0.000,745.7,01.17,0.508
2014-04-21 02:56:00,3113E-2,5C000400,-0724,1029,10256,028.6,045.3,0.000,745.6,01.17,0.508
2014-04-21 02:57:00,3181E-2,5C000400,-0724,1029,10314,028.6,045.3,0.000,745.6,01.17,0.508
2014-04-21 02:58:00,3226E-2,5C000400,-0724,1029,10205,028.6,045.3,0.000,745.6,01.17,0.508
2014-04-21 02:59:00,3183E-2,5C000400,-0724,1030,10131,028.6,045.3,0.000,745.7,01.17,0.508
2014-04-21 03:00:00,3193E-2,5C000400,-0724,1030,10307,028.6,045.3,0.000,745.7,01.17,0.508
2014-04-21 03:01:00,3171E-2,5C000400,-0724,1030,10068,028.6,045.3,0.000,745.7,01.17,0.508
2014-04-21 03:02:00,3155E-2,5C000400,-0724,1028,10296,028.6,045.4,0.000,745.7,01.17,0.508
2014-04-21 03:03:00,3198E-2,5C000400,-0724,1031,10187,028.6,045.3,0.000,745.6,01.17,0.508
2014-04-21 03:04:00,3257E-2,5C000400,-0724,1030,10351,028.6,045.3,0.000,745.7,01.17,0.508
2014-04-21 03:05:00,3170E-2,5C000400,-0724,1029,10214,028.6,045.4,0.000,745.7,01.17,0.508
2014-04-21 03:06:00,3194E-2,5C000400,-0724,1029,10263,028.6,045.3,0.000,745.6,01.17,0.508
2014-04-21 03:07:00,3199E-2,5C000400,-0724,1030,10320,028.7,045.4,0.000,745.6,01.17,0.508
2014-04-21 03:08:00,3143E-2,5C000400,-0724,1030,10252,028.7,045.3,0.000,745.6,01.17,0.508
2014-04-21 03:09:00,3194E-2,5C000400,-0724,1029,10055,028.7,045.3,0.000,745.6,01.17,0.508
2014-04-21 03:10:00,3171E-2,5C000400,-0724,1030,10214,028.7,045.3,0.000,745.6,01.17,0.508
2014-04-21 03:11:00,3206E-2,5C000400,-0724,1029,10110,028.7,045.4,0.000,745.6,01.17,0.508
2014-04-21 03:12:00,3146E-2,5C000400,-0724,1029,10088,028.7,045.3,0.000,745.7,01.17,0.508
2014-04-21 03:13:00,3207E-2,5C000400,-0724,1030,9991,028.7,045.3,0.000,745.6,01.17,0.508
2014-04-21 03:14:00,3181E-2,5C000400,-0724,1029,10277,028.7,045.3,0.000,745.6,01.17,0.508
2014-04-21 03:15:00,3202E-2,5C000400,-0724,1029,10123,028.7,045.4,0.000,745.6,01.17,0.508
2014-04-21 03:16:00,3228E-2,5C000400,-0724,1029,10261,028.7,045.4,0.000,745.6,01.17,0.508
2014-04-21 03:17:00,3169E-2,5C000400,-0724,1030,10168,028.8,045.4,0.000,745.6,01.17,0.508
2014-04-21 03:18:00,3206E-2,5C000400,-0724,1030,10161,028.7,045.4,0.000,745.5,01.17,0.508
2014-04-21 03:19:00,3170E-2,5C000400,-0724,1029,10250,028.8,045.4,0.000,745.6,01.17,0.508
2014-04-21 03:20:00,3202E-2,5C000400,-0724,1030,10268,028.8,045.4,0.000,745.6,01.17,0.508
2014-04-21 03:21:00,3186E-2,5C000400,-0724,1030,10247,028.8,045.4,0.000,745.6,01.17,0.508
2014-04-21 03:22:00,3185E-2,5C000400,-0724,1028,10283,028.8,045.4,0.000,745.5,01.17,0.508
2014-04-21 03:23:00,3199E-2,5C000400,-0724,1028,10069,028.8,045.3,0.000,745.5,01.17,0.508
2014-04-21 03:24:00,3180E-2,5C000400,-0724,1029,10247,028.8,045.3,0.000,745.5,01.17,0.508
2014-04-21 03:25:00,3210E-2,5C000400,-0724,1030,9981,028.8,045.3,0.000,745.5,01.17,0.508
2014-04-21 03:26:00,3178E-2,5C000400,-0724,1029,10221,028.8,045.3,0.000,745.5,01.17,0.508
2014-04-21 03:27:00,3145E-2,5C000400,-0724,1029,10171,028.9,045.4,0.000,745.6,01.17,0.508
2014-04-21 03:28:00,3177E-2,5C000400,-0724,1030,10181,028.9,045.4,0.000,745.5,01.17,0.508
2014-04-21 03:29:00,3170E-2,5C000400,-0724,1030,10240,028.9,045.3,0.000,745.5,01.17,0.508
2014-04-21 03:30:00,3176E-2,5C000400,-0724,1030,10183,028.9,045.4,0.000,745.5,01.17,0.508
2014-04-21 03:31:00,3154E-2,5C000400,-0724,1030,9996,028.9,045.3,0.000,745.5,01.17,0.508
2014-04-21 03:32:00,3130E-2,5C000400,-0724,1031,10118,028.9,045.4,0.000,745.5,01.17,0.508
2014-04-21 03:33:00,3218E-2,5C000400,-0724,1030,10164,028.9,045.4,0.000,745.4,01.17,0.508
2014-04-21 03:34:00,3192E-2,5C000400,-0724,1029,10169,028.9,045.4,0.000,745.5,01.17,0.508
2014-04-21 03:35:00,3239E-2,5C000400,-0724,1029,10204,029.0,045.3,0.000,745.5,01.17,0.508
2014-04-21 03:36:00,3209E-2,5C000400,-0724,1030,10267,029.0,045.4,0.000,745.4,01.17,0.508
2014-04-21 03:37:00,3151E-2,5C000400,-0724,1030,10275,029.0,045.4,0.000,745.3,01.17,0.508
2014-04-21 03:38:00,3241E-2,5C000400,-0724,1030,10223,029.0,045.3,0.000,745.4,01.17,0.508
2014-04-21 03:39:00,3216E-2,5C000400,-0724,1030,10094,029.0,045.3,0.000,745.4,01.17,0.508
2014-04-21 03:40:00,3188E-2,5C000400,-0724,1030,10151,029.0,045.4,0.000,745.4,01.17,0.508
2014-04-21 03:41:00,3188E-2,5C000400,-0724,1031,10232,029.1,045.4,0.000,745.3,01.17,0.508
2014-04-21 03:42:00,3211E-2,5C000400,-0724,1031,10133,029.0,045.4,0.000,745.3,01.17,0.508
2014-04-21 03:43:00,3217E-2,5C000400,-0724,1030,10198,029.0,045.4,0.000,745.3,01.17,0.508
2014-04-21 03:44:00,3176E-2,5C000400,-0724,1030,10269,029.1,045.4,0.000,745.4,01.17,0.508
2014-04-21 03:45:00,3230E-2,5C000400,-0724,1031,10300,029.1,045.4,0.000,745.3,01.17,0.508
2014-04-21 03:46:00,3209E-2,5C000400,-0724,1030,10295,029.1,045.4,0.000,745.3,01.17,0.508
2014-04-21 03:47:00,3216E-2,5C000400,-0724,1030,10233,029.1,045.4,0.000,745.2,01.17,0.508
2014-04-21 03:48:00,3166E-2,5C000400,-0724,1030,10307,029.1,045.4,0.000,745.3,01.17,0.508
2014-04-21 03:49:00,3197E-2,5C000400,-0724,1031,10099,029.1,045.4,0.000,745.3,01.17,0.508
2014-04-21 03:50:00,3190E-2,5C000400,-0724,1030,10164,029.1,045.4,0.000,745.2,01.17,0.508
2014-04-21 03:51:00,3206E-2,5C000400,-0724,1030,10194,029.1,045.4,0.000,745.2,01.17,0.508
2014-04-21 03:52:00,3209E-2,5C000400,-0724,1031,10044,029.1,045.4,0.000,745.2,01.17,0.508
2014-04-21 03:53:00,3169E-2,5C000400,-0724,1032,10129,029.2,045.4,0.000,745.2,01.17,0.508
2014-04-21 03:54:00,3210E-2,5C000400,-0724,1030,10012,029.1,045.4,0.000,745.2,01.17,0.508
2014-04-21 03:55:00,3229E-2,5C000400,-0724,1031,10261,029.2,045.4,0.000,745.2,01.17,0.508
2014-04-21 03:56:00,3196E-2,5C000400,-0724,1031,10212,029.2,045.4,0.000,745.2,01.17,0.508
2014-04-21 03:57:00,3247E-2,5C000400,-0724,1031,10177,029.2,045.4,0.000,745.2,01.17,0.508
2014-04-21 03:58:00,3224E-2,5C000400,-0724,1032,10292,029.2,045.4,0.000,745.2,01.17,0.508
2014-04-21 03:59:00,3196E-2,5C000410,-0724,1031,10343,029.2,045.4,0.000,745.2,01.17,0.508
2014-04-21 04:00:00,3202E-2,5C000400,-0724,1030,10224,029.3,045.4,0.000,745.2,01.17,0.508
2014-04-21 04:01:00,3263E-2,5C000400,-0724,1031,10064,029.2,045.4,0.000,745.2,01.17,0.508
2014-04-21 04:02:00,3215E-2,5C000400,-0724,1032,10202,029.3,045.4,0.000,745.2,01.17,0.508
2014-04-21 04:03:00,3203E-2,5C000400,-0724,1031,10185,029.3,045.4,0.000,745.2,01.17,0.508
2014-04-21 04:04:00,3233E-2,5C000400,-0724,1031,10164,029.3,045.4,0.000,745.1,01.17,0.508
2014-04-21 04:05:00,3192E-2,5C000400,-0724,1031,10111,029.3,045.4,0.000,745.1,01.17,0.508
2014-04-21 04:06:00,3212E-2,5C000400,-0724,1031,10345,029.3,045.4,0.000,745.1,01.17,0.508
2014-04-21 04:07:00,3218E-2,5C000400,-0724,1032,10193,029.3,045.4,0.000,745.2,01.17,0.508
2014-04-21 04:08:00,3193E-2,5C000400,-0724,1031,10246,029.4,045.4,0.000,745.2,01.17,0.508
2014-04-21 04:09:00,3230E-2,5C000400,-0724,1031,10251,029.4,045.4,0.000,745.1,01.17,0.508
2014-04-21 04:10:00,3220E-2,5C000400,-0724,1030,10353,029.4,045.4,0.000,745.1,01.17,0.508
2014-04-21 04:11:00,3184E-2,5C000400,-0724,1030,10080,029.4,045.4,0.000,745.1,01.17,0.508
2014-04-21 04:12:00,3203E-2,5C000400,-0724,1030,10256,029.4,045.4,0.000,745.1,01.17,0.508
2014-04-21 04:13:00,3175E-2,5C000400,-0724,1031,10092,029.4,045.4,0.000,745.2,01.17,0.508
2014-04-21 04:14:00,3171E-2,5C000400,-0724,1031,10287,029.4,045.4,0.000,745.1,01.17,0.508
2014-04-21 04:15:00,3218E-2,5C000400,-0724,1031,10140,029.4,045.4,0.000,745.1,01.17,0.508
2014-04-21 04:16:00,3234E-2,5C000400,-0724,1032,10155,029.5,045.4,0.000,745.1,01.17,0.508
2014-04-21 04:17:00,3254E-2,5C000400,-0724,1031,10230,029.4,045.4,0.000,745.1,01.17,0.508
2014-04-21 04:18:00,3194E-2,5C000400,-0724,1031,10207,029.5,045.4,0.000,745.1,01.17,0.508
2014-04-21 04:19:00,3280E-2,5C000400,-0724,1031,10284,029.5,045.4,0.000,745.1,01.17,0.508
2014-04-21 04:20:00,3203E-2,5C000400,-0724,1032,10278,029.5,045.4,0.000,745.1,01.17,0.508